Location: Unspecified
(54.1780°N, 0.0000°E)
Time: 05:32:51
(UTC+00:00)

Transit 2A - Pass Details

Date: 19 June 2019
Orbit: 595 x 964 km, 66.7° (Epoch: 22 July)

Event Time Altitude Azimuth Distance (km) Brightness Sun altitude
Rises 23:51:41 0° 172° (S) 3,626 - -12.4°
Reaches altitude 10° 23:54:42 10° 159° (SSE) 2,696 - -12.4°
Exits shadow 23:55:35 13° 154° (SSE) 2,462 8.1 -12.4°
Maximum altitude 23:59:36 24° 109° (ESE) 1,880 7.8 -12.4°
Drops below altitude 10° 00:04:26 10° 59° (ENE) 2,665 9.2 -12.4°
Sets 00:07:23 0° 46° (NE) 3,575 10.2 -12.4°
